Flag for U.S.A. Weather past 2 weeks in Salem, Oregon, U.S.A.

Now
58 °F

Light rain. Fog.


Feels Like: 57 °F
Forecast: 58 / 67 °F
Wind: 7 mph from South

Location: McNary Field

Current Time: Jul 23, 2014 at 8:47:12 AM

Latest Report: Jul 23, 2014 at 7:56 AM


Visibility: 6 mi

Pressure: 30.04 "Hg

Humidity: 90%

Dew point: 55 °F

Location of SalemLocation

Historic Weather in Salem — Graph

°F

Salem temperature yesterday

Maximum temperature yesterday: 75 °F (at 6:56 PM)
Minimum temperature yesterday: 60 °F (at 4:56 AM)
Average temperature yesterday: 67 °F

Past Weeks' High & Low Weather Summary

 TemperatureHumidityPressure
High96 °F (Jul 16, 4:56 PM)90% (Jul 11, 5:56 AM)30.14 "Hg (Jul 11, 5:56 AM)
Low53 °F (Jul 10, 5:56 AM)21% (Jul 16, 5:56 PM)29.82 "Hg (Jul 10, 5:56 PM)
Average72 °F57%29.99 "Hg
* Reported Jul 8 6:56 AM — Jul 23 6:56 AM, Salem, Weather by CustomWeather, © 2014

Note: Actual official high and low records may vary slightly from our data, if they occured in-between our weather recording intervals... More about our weather records

Advertising

Salem weather history for previous 24 hours

 ConditionsComfort  
Time TempWeatherWind HumidityBarometerVisibility
6:56 AM
Jul 23
59 °FLight rain. Fog.8 mph81%30.03 "Hg5 mi
5:56 AM61 °FMostly cloudy.12 mph67%30.02 "Hg10 mi
4:56 AM61 °FOvercast.5 mph67%30.02 "Hg10 mi
3:56 AM61 °FPassing clouds.6 mph65%30.01 "Hg10 mi
2:56 AM62 °FClear.6 mph58%30.01 "Hg10 mi
1:56 AM63 °FPassing clouds.3 mph58%30.01 "Hg10 mi
12:56 AM64 °FOvercast.7 mph65%30.00 "Hg10 mi
10:56 PM
Jul 22
68 °FClear.8 mph59%29.99 "Hg10 mi
9:56 PM70 °FOvercast.6 mph76%29.98 "Hg10 mi
8:56 PM70 °FSunny.5 mph73%29.98 "Hg10 mi
7:56 PM75 °FScattered clouds.No wind55%29.97 "Hg10 mi
6:56 PM75 °FPassing clouds.No wind55%29.97 "Hg10 mi
5:56 PM73 °FScattered clouds.No wind59%29.98 "Hg10 mi
4:56 PM73 °FOvercast.6 mph66%29.99 "Hg10 mi
9:56 AM66 °FMore clouds than sun.3 mph75%30.04 "Hg10 mi
8:56 AM62 °FOvercast.3 mph83%30.04 "Hg10 mi
Weather by CustomWeather, © 2014

See weather overviewHow to use our weather pages